Regional Weather Roundup
Issued by NWS Charleston, SC

Current Version | Previous Version | Graphics & Text | Print | Product List | Glossary On
Versions: 1 2 3 4 5 6 7 8 9 10 11 12 13 14 15 16 17 18 19 20 21 22 23 24 25 26 27 28 29 30 31 32 33 34 35 36 37 38 39 40 41 42 43 44 45 46 47 48 49 50
000 ASUS42 KCHS 301110 RWRCHS REGIONAL WEATHER ROUNDUP NATIONAL WEATHER SERVICE CHARLESTON SC 700 AM EDT SAT AUG 30 2014 NOTE: "FAIR" INDICATES FEW OR NO CLOUDS BELOW 12,000 FEET WITH NO SIGNIFICANT WEATHER AND/OR OBSTRUCTIONS TO VISIBILITY. NOT ALL STATIONS ARE QUALITY CONTROLLED BY THE NATIONAL WEATHER SERVICE. USE DATA WITH CAUTION...ESPECIALLY DEWPOINT OBSERVATIONS. SCZ027-030-031-034>040-042>050-301200- ...SOUTH CAROLINA... CITY SKY/WX TMP DP RH WIND PRES REMARKS N CHARLESTON PTCLDY 76 73 91 NE5 30.16R WATERFRONT PRK N/A 79 N/A N/A N5 N/A FORT JOHNSON NOT AVBL MOUNT PLEASANT LGT RAIN 72 72 100 CALM 30.16R JOHNS ISLAND SUNNY 73 73 100 CALM 30.15S PINOPOLIS N/A 79 75 89 CALM 30.09R MONCKS CORNER N/A 72 72 100 CALM 30.16R SUMMERVILLE FAIR 68 68 100 CALM 30.17R BEAUFORT MCAS CLEAR 76 73 91 CALM 30.14R BEAUFORT ARPT FAIR 77 77 100 NE3 30.13S HILTON HEAD IS NOT AVBL GEORGETOWN NOT AVBL WALTERBORO SUNNY 70 N/A N/A CALM 30.16R ORANGEBURG CLEAR 72 69 90 E5 30.16R BARNWELL FAIR 72 70 94 CALM 30.16R AIKEN CLOUDY 70 70 100 CALM 30.20R MANNING CLOUDY 70 N/A N/A CALM 30.17R VSB 1/2 KINGSTREE NOT AVBL COLUMBIA PTCLDY 73 70 90 E5 30.16R FOG SUMTER FOG 73 73 100 NE3 30.16S VSB<1/4 FLORENCE CLOUDY 74 72 93 CALM 30.18R FOG MYRTLE BEACH PTCLDY 75 72 88 VRB6 30.17R N MYRTLE BEACH MOCLDY 74 72 93 CALM 30.17R $$ GAZ063-065-086>088-099>101-113>116-118-119-134-136>141-150-301200- ...GEORGIA... CITY SKY/WX TMP DP RH WIND PRES REMARKS SAVANNAH ARPT PTCLDY 75 72 90 CALM 30.14R HUNTER AAF CLEAR 74 74 99 CALM 30.12R FORT STEWART NOT AVBL STATESBORO NOT AVBL SYLVANIA PTSUNNY 65 65 100 CALM 30.16R FOG CLAXTON NOT AVBL THOMSON CLEAR 73 73 100 CALM 30.19S AUGUSTA-BUSH CLEAR 67 67 100 CALM 30.14S AUGUSTA-DANIEL CLEAR 74 71 91 SE6 30.16R SWAINSBORO FAIR 75 75 100 CALM 30.14S VIDALIA N/A 73 72 94 CALM 30.14R ALMA FOG 72 71 97 CALM 30.12R VSB 1/4 WAYCROSS CLEAR 76 76 99 CALM 30.11S JESUP N/A 73 72 94 CALM 30.12R FOG BRUNSWICK CLEAR 73 70 88 CALM 30.13R SAINT SIMONS CLEAR 76 73 91 CALM 30.12R $$ SCZ027-028-034-036>038-045-046-048>050-GAZ119-141-301200- ...LAKE AND SUPPLEMENTAL COASTAL OBSERVATIONS... STATION/POSITION TIME TEMP WIND PRES WAVE SWELL AIR SEA DIR/SP/G HT/PER HT/PER/DIR (UTC) (F) (DEG/KT/KT) (MB) (FT/S) (FT/S/D) UPR LAKE MARION NOT AVBL WINYAH BAY 1000 74 310/ 2 1020.0S LAKE MURRAY 1000 76 90/ 5/ 7 1020.7R ACE BASIN NERRS 1000 75 CALM 1020.0S FORT PULASKI 1100 80 CALM / 1 1020.5R SAPELO ISLAND 1000 76 CALM 1020.0S $$ ANZ835-935-AMZ111-154-330-350-352-354-374-450-454-472-301200- ...C-MAN AND BUOY OBSERVATIONS... STATION/POSITION TIME TEMP WIND PRES WAVE SWELL AIR SEA DIR/SP/G HT/PER HT/PER/DIR (UTC) (F) (DEG/KT/KT) (MB) (FT/S) (FT/S/D) FOLLY BEACH CMAN 1000 81 70/ 3/ 3 1021.1R BUOY 41004 1100 82 83 30/ 6/ 6 1020.9R 3/ 8 3/ 8 BUOY 41008 1100 82 84 150/ 2/ 4 1020.1R 2/ 8 2/100/ 8 5E ST. MARYS GA 1100 83 N/A 2/ 8 FRYING PAN BUOY NOT AVBL BUOY 41025 1100 80 140/ 6/ 8 1022.3R 4/ 8 3/140/ 8 CAPE LOOKOUT NC 1000 80 50/ 4/ 4 1021.7R BUOY 41002 0954 79 82 150/ 10/ 14 1022.5 3/ 8 3/120/ 8 BUOY 41010 1100 82 84 190/ 6/ 6 1020.7R 3/ 8 3/100/ 8 BUOY 41012 NOT AVBL ST AUGUSTINE FL 1100 73 320/ 3/ 4 1020.9R CAPERS NEARSHORE 1000 80 80/ 4/ 4 N/A FRIPP NEARSHORE NOT AVBL $$

USA.gov is the U.S. government's official web portal to all federal, state and local government web resources and services.